User: anonymous   Login
Location: Pleiades Observatory
(40.1297°N, 91.5238°W)
Time: 00:06:47
(UTC-05:00)
Language:

Cosmos 1842 Rocket - Orbit

View from above orbital plane
View from above orbital plane
View from above satellite
View from above satellite

Ground track
Ground track

The orbit data is extracted from the following two-line orbital elements,

1 17912U 87038B   16239.83108210  .00000077  00000-0  65334-5 0  9990
2 17912  82.5046 326.5373 0021689 118.0762 242.2649 14.82882891584105
Epoch (UTC): 26 August 2016 19:56:45
Eccentricity: 0.0021689
inclination: 82.5046°
perigee height: 605 km
apogee height: 635 km
right ascension of ascending node: 326.5373°
argument of perigee: 118.0762°
revolutions per day: 14.82882891
mean anomaly at epoch: 242.2649°
orbit number at epoch: 58410

The dashed part of the orbit path shows where the satellite is in the earth's shadow,  

DLR